Home   Weather   Bend   Past weeks

Flag for USA Past Weather in Bend, Oregon, USA — Yesterday and Last 2 Weeks

Now
29 °F

Overcast.


Feels Like: 29 °F
Forecast: 25 / 35 °F
Wind: No wind

Location: Roberts Field Airport

Current Time: Dec 4, 2016 at 8:36:03 pm

Latest Report: Dec 4, 2016 at 7:56 pm


Visibility: 10 mi

Pressure: 30.14 "Hg (26.23 "Hg at 1103m altitude)

Humidity: 79%

Dew Point: 23 °F

Location of BendLocation

Past Weather in Bend — Graph

°F

Bend Temperature Yesterday

Maximum temperature yesterday: 48 °F (at 1:56 pm)
Minimum temperature yesterday: 27 °F (at 7:56 pm)
Average temperature yesterday: 38 °F

High & Low Weather Summary for the Past Weeks

 TemperatureHumidityPressure
High51 °F (Nov 20, 12:56 pm)89% (Nov 23, 5:56 am)30.41 "Hg (Nov 23, 5:56 am)
Low20 °F (Dec 2, 1:56 am)24% (Nov 26, 12:56 pm)29.43 "Hg (Nov 26, 5:56 pm)
Average38 °F64%30.01 "Hg
* Reported Nov 19 6:56 pm — Dec 4 6:56 pm, Bend, Weather by CustomWeather, © 2016

Note: Actual official high and low records may vary slightly from our data, if they occured in-between our weather recording intervals... More about our weather records

Advertising

Bend Weather History for the Previous 24 Hours

Scroll right to see more
 ConditionsComfort  
Time TempWeatherWind HumidityBarometerVisibility
6:56 pm
Sun, Dec 4
30 °FOvercast.No wind66%30.11 "Hg10 mi
5:56 pm29 °FClear.6 mph72%30.11 "Hg10 mi
4:56 pm31 °FPassing clouds.6 mph79%30.09 "Hg10 mi
3:56 pm33 °FMostly cloudy.No wind82%30.06 "Hg10 mi
2:56 pm36 °FPassing clouds.10 mph73%30.03 "Hg10 mi
1:56 pm37 °FPartly sunny.14 mph79%30.02 "Hg10 mi
12:56 pm37 °FPassing clouds.16 mph79%30.01 "Hg10 mi
11:56 am35 °FLight snow. Fog.10 mph85%30.03 "Hg2 mi
10:56 am35 °FLight snow. Fog.9 mph85%30.02 "Hg6 mi
9:56 am38 °FRain. Overcast.12 mph83%30.01 "Hg6 mi
8:56 am36 °FLight rain. Overcast.No wind89%29.99 "Hg8 mi
7:56 am37 °FMore clouds than sun.6 mph86%29.98 "Hg10 mi
6:56 am36 °FLight rain. Mostly cloudy.7 mph85%29.99 "Hg10 mi
5:56 am37 °FLight rain. Overcast.6 mph82%30.01 "Hg10 mi
4:56 am35 °FLight rain. Overcast.6 mph82%30.03 "Hg10 mi
3:56 am35 °FOvercast.7 mph70%30.05 "Hg10 mi
2:56 am33 °FPassing clouds.12 mph72%30.05 "Hg10 mi
1:56 am30 °FPassing clouds.3 mph79%30.07 "Hg10 mi
12:56 am30 °FClear.3 mph75%30.09 "Hg10 mi
11:56 pm
Sat, Dec 3
32 °FClear.5 mph69%30.14 "Hg10 mi
10:56 pm33 °FClear.3 mph66%30.17 "Hg10 mi
9:56 pm31 °FClear.5 mph73%30.20 "Hg10 mi
8:56 pm29 °FClear.8 mph79%30.22 "Hg10 mi
Weather by CustomWeather, © 2016

See weather overviewHow to use our weather pages